CW2550 Weather Reports


Display with metric or nautical units.
time (UTC)temp
F
wind
direction
speed
MPH
gust
MPH
rain 1hr
in
rain 24hr
in
rain mn
in
humidity
%
barometer
mb
20260510160040 52 332 3.0 9.0 0.00 0.00 0.00 45 1018.9
20260510154543 52 333 3.0 8.0 0.00 0.00 0.00 47 1018.9
20260510153057 51 351 3.0 9.0 0.00 0.00 0.00 47 1018.9
20260510151550 51 59 4.0 8.0 0.00 0.00 0.00 48 1018.8
20260510150048 50 24 1.0 8.0 0.00 0.00 0.00 51 1018.7
20260510144601 50 15 4.0 8.0 0.00 0.00 0.00 51 1018.8
20260510143056 50 15 2.0 7.0 0.00 0.00 0.00 52 1019.0
20260510141541 49 28 3.0 6.0 0.00 0.00 0.00 55 1018.8
20260510140042 47 22 2.0 6.0 0.00 0.00 0.00 57 1018.5
20260510134544 46 34 4.0 8.0 0.00 0.00 0.00 57 1018.4
20260510133054 46 348 5.0 8.0 0.00 0.00 0.00 57 1018.3
20260510131553 45 339 6.0 10.0 0.00 0.00 0.00 59 1018.2
20260510130045 43 318 2.0 6.0 0.00 0.00 0.00 65 1018.0
20260510124558 41 0 0.0 0.0 0.00 0.00 0.00 73 1017.9
20260510123050 40 0 0.0 1.0 0.00 0.00 0.00 74 1017.7
20260510121539 38 0 0.0 0.0 0.00 0.00 0.00 76 1017.6
20260510120043 37 0 0.0 1.0 0.00 0.00 0.00 75 1017.4
20260510114547 37 0 0.0 1.0 0.00 0.00 0.00 75 1017.1
20260510113043 36 201 0.0 2.0 0.00 0.00 0.00 75 1017.1
20260510111546 36 201 0.0 3.0 0.00 0.00 0.00 75 1016.7
20260510110044 36 0 0.0 2.0 0.00 0.00 0.00 74 1016.8
20260510104548 36 0 1.0 3.0 0.00 0.00 0.00 73 1016.5
20260510103044 36 201 1.0 3.0 0.00 0.00 0.00 73 1016.4
20260510101543 36 202 3.0 5.0 0.00 0.00 0.00 73 1016.2
20260510100105 36 256 2.0 3.0 0.00 0.00 0.00 73 1016.1
20260510094555 37 256 1.0 3.0 0.00 0.00 0.00 71 1015.9
20260510093052 36 257 2.0 3.0 0.00 0.00 0.00 72 1015.8
20260510091548 36 257 2.0 3.0 0.00 0.00 0.00 71 1015.6
20260510090048 36 257 0.0 2.0 0.00 0.00 0.00 70 1015.6
20260510084603 36 257 2.0 3.0 0.00 0.00 0.00 70 1015.5
20260510083045 37 257 1.0 3.0 0.00 0.00 0.00 68 1015.2
20260510081552 38 257 2.0 3.0 0.00 0.00 0.00 66 1015.2
20260510080041 38 0 0.0 0.0 0.00 0.00 0.00 64 1015.1
20260510074543 39 0 0.0 0.0 0.00 0.00 0.00 63 1015.0
20260510073046 39 0 0.0 0.0 0.00 0.00 0.00 61 1015.1
20260510071544 40 0 0.0 0.0 0.00 0.00 0.00 61 1015.0
20260510070045 41 0 0.0 0.0 0.00 0.00 0.00 61 1015.0
20260510064541 41 0 0.0 1.0 0.00 0.00 0.00 59 1014.9
20260510063047 42 0 0.0 0.0 0.00 0.00 0.00 57 1014.7
20260510061542 43 0 0.0 0.0 0.00 0.00 0.00 54 1014.7
20260510060049 44 0 0.0 0.0 0.00 0.00 0.00 52 1014.7
20260510054541 46 0 0.0 2.0 0.00 0.00 0.00 51 1014.7
20260510053042 46 305 1.0 4.0 0.00 0.00 0.00 49 1014.7
20260510051546 47 313 2.0 5.0 0.00 0.00 0.00 48 1014.6
20260510050051 47 306 2.0 6.0 0.00 0.00 0.00 48 1014.4
20260510044546 47 321 2.0 8.0 0.00 0.00 0.00 47 1014.2
20260510043057 48 306 2.0 6.0 0.00 0.00 0.00 46 1014.1
20260510041542 48 296 2.0 9.0 0.00 0.00 0.00 46 1013.9
20260510040047 48 290 1.0 5.0 0.00 0.00 0.00 46 1013.8
20260510034544 49 306 1.0 4.0 0.00 0.00 0.00 44 1013.7
20260510033048 49 277 1.0 5.0 0.00 0.00 0.00 43 1013.5
20260510031544 50 323 1.0 5.0 0.00 0.00 0.00 42 1013.3
20260510030046 50 321 1.0 6.0 0.00 0.00 0.00 42 1013.2
20260510024541 51 335 1.0 6.0 0.00 0.00 0.00 41 1013.0
20260510023044 52 328 1.0 4.0 0.00 0.00 0.00 40 1012.7
20260510021541 52 324 2.0 8.0 0.00 0.00 0.00 39 1012.2
20260510020044 53 315 2.0 8.0 0.00 0.00 0.00 38 1011.8
20260510014547 53 325 3.0 8.0 0.00 0.00 0.00 37 1011.7
20260510013037 54 323 3.0 10.0 0.00 0.00 0.00 36 1011.4
20260510011545 55 308 3.0 11.0 0.00 0.00 0.00 35 1011.3
20260510010043 55 317 4.0 16.0 0.00 0.00 0.00 34 1011.0
20260510004543 56 326 5.0 15.0 0.00 0.00 0.00 34 1010.8
20260510003042 56 308 6.0 13.0 0.00 0.00 0.00 32 1010.6
20260510001545 57 360 7.0 14.0 0.00 0.00 0.00 33 1010.4
20260510000100 57 249 6.0 14.0 0.00 0.00 0.00 33 1010.3
20260509234552 57 344 7.0 14.0 0.00 0.00 0.00 32 1010.0
20260509233045 57 327 7.0 20.0 0.00 0.00 0.00 30 1010.0
20260509231544 58 336 7.0 15.0 0.00 0.00 0.00 31 1009.7
20260509230044 58 336 5.0 13.0 0.00 0.00 0.00 32 1009.5
20260509224539 58 311 8.0 19.0 0.00 0.00 0.00 31 1009.4
20260509223044 58 333 7.0 17.0 0.00 0.00 0.00 31 1009.2
20260509221545 58 339 7.0 19.0 0.00 0.00 0.00 31 1009.1
20260509220043 58 337 10.0 16.0 0.00 0.00 0.00 31 1009.0
20260509214540 58 344 10.0 17.0 0.00 0.00 0.00 31 1009.0
20260509213049 58 340 8.0 17.0 0.00 0.00 0.00 32 1008.9
20260509211544 58 340 7.0 17.0 0.00 0.00 0.00 32 1008.8
20260509210052 58 316 8.0 23.0 0.00 0.00 0.00 31 1008.8
20260509204550 58 341 11.0 20.0 0.00 0.00 0.00 33 1008.7
20260509203047 58 326 9.0 19.0 0.00 0.00 0.00 31 1008.6
20260509201540 57 327 9.0 16.0 0.00 0.00 0.00 34 1008.4
20260509200059 58 323 12.0 26.0 0.00 0.00 0.00 33 1008.4
20260509194544 57 360 11.0 20.0 0.00 0.00 0.00 34 1008.1
20260509193043 57 333 12.0 19.0 0.00 0.00 0.00 33 1008.0
20260509191540 57 291 9.0 19.0 0.00 0.00 0.00 36 1008.1
20260509190039 57 347 11.0 18.0 0.00 0.00 0.00 37 1007.9
20260509184556 57 338 10.0 17.0 0.00 0.00 0.00 37 1007.7
20260509183041 57 346 10.0 20.0 0.00 0.00 0.00 38 1007.4
20260509181548 57 324 10.0 18.0 0.00 0.00 0.00 37 1007.3
20260509180043 57 340 12.0 22.0 0.00 0.00 0.00 37 1007.2
20260509174539 56 338 7.0 19.0 0.00 0.00 0.00 39 1007.0
20260509173051 56 345 8.0 19.0 0.00 0.00 0.00 39 1006.9
20260509171542 56 339 11.0 21.0 0.00 0.00 0.00 40 1007.0
20260509170043 56 312 10.0 23.0 0.00 0.00 0.00 42 1006.7
20260509164541 55 342 10.0 21.0 0.00 0.00 0.00 43 1006.8
20260509163047 55 328 11.0 19.0 0.00 0.00 0.00 42 1006.7
20260509161544 55 315 5.0 18.0 0.00 0.00 0.00 45 1006.8